Location: Dos Palmas
(32.4468°N, 116.8732°W)
Time: 12:40:37
(UTC+00:00)

ATLAS CENTAUR R/B - Pass Details

Date: 20 June 2021
Orbit: 472 x 671 km, 64.6° (Epoch: 13 June)

Event Time Altitude Azimuth Distance (km) Brightness Sun altitude
Rises 05:47:21 0° 334° (NNW) 2,844 6.3 -27.0°
Reaches altitude 10° 05:49:34 10° 337° (NNW) 1,969 5.1 -27.3°
Enters shadow 05:53:06 53° 2° (N) 780 2.2 -27.6°
